Time,TemperatureF,DewpointF,PressureIn,WindDirection,WindDirectionDegrees,WindSpeedMPH,WindSpeedGustMPH,Humidity,HourlyPrecipIn,Conditions,Clouds,dailyrainin,SoftwareType,DateUTC
2013-06-11 00:01:00,69.1,68.2,29.99,SW,215,6.0,12.0,97,0.00,,---,0.79,VWS V14.01,2013-06-11 04:01:00,
2013-06-11 00:03:00,69.2,68.0,29.99,SW,219,5.0,5.0,96,0.00,,---,0.00,VWS V14.01,2013-06-11 04:03:00,
2013-06-11 00:08:00,69.1,67.9,29.99,SW,214,8.0,8.0,96,0.00,,---,0.00,VWS V14.01,2013-06-11 04:08:00,
2013-06-11 00:13:00,69.1,67.9,29.99,South,184,6.0,8.0,96,0.00,,---,0.00,VWS V14.01,2013-06-11 04:13:00,
2013-06-11 00:18:00,69.1,67.9,29.98,SSE,156,1.0,7.0,96,0.00,,---,0.00,VWS V14.01,2013-06-11 04:18:00,
2013-06-11 00:23:00,69.0,67.8,29.98,WSW,243,4.0,9.0,96,0.00,,---,0.00,VWS V14.01,2013-06-11 04:23:00,
2013-06-11 00:28:00,69.0,67.8,29.98,SSW,194,2.0,4.0,96,0.00,,---,0.00,VWS V14.01,2013-06-11 04:28:00,
2013-06-11 00:33:00,68.9,68.0,29.98,SW,231,2.0,4.0,97,0.00,,---,0.00,VWS V14.01,2013-06-11 04:33:00,
2013-06-11 00:38:00,68.9,68.0,29.98,SSW,195,3.0,6.0,97,0.00,,---,0.00,VWS V14.01,2013-06-11 04:38:00,
2013-06-11 00:43:00,68.9,68.0,29.98,SW,225,2.0,5.0,97,0.00,,---,0.00,VWS V14.01,2013-06-11 04:43:00,
2013-06-11 00:48:00,68.9,68.0,29.98,SW,219,4.0,9.0,97,0.00,,---,0.00,VWS V14.01,2013-06-11 04:48:00,
2013-06-11 00:53:00,68.8,67.9,29.98,SW,219,6.0,7.0,97,0.00,,---,0.00,VWS V14.01,2013-06-11 04:53:00,
2013-06-11 00:58:00,68.9,68.0,29.98,SSW,207,3.0,7.0,97,0.00,,---,0.00,VWS V14.01,2013-06-11 04:58:00,
2013-06-11 01:03:00,68.9,68.0,29.98,SW,227,5.0,6.0,97,0.00,,---,0.00,VWS V14.01,2013-06-11 05:03:00,
2013-06-11 01:08:00,69.0,67.8,29.97,SSW,205,4.0,10.0,96,0.00,,---,0.00,VWS V14.01,2013-06-11 05:08:00,
2013-06-11 01:13:00,69.0,67.8,29.97,SW,218,2.0,4.0,96,0.00,,---,0.00,VWS V14.01,2013-06-11 05:13:00,
2013-06-11 01:18:00,69.0,67.8,29.97,SW,214,6.0,12.0,96,0.00,,---,0.00,VWS V14.01,2013-06-11 05:18:00,
2013-06-11 01:23:00,69.1,67.9,29.97,SSW,207,7.0,9.0,96,0.00,,---,0.00,VWS V14.01,2013-06-11 05:23:00,
2013-06-11 01:28:00,69.1,67.9,29.97,SSW,207,5.0,8.0,96,0.00,,---,0.00,VWS V14.01,2013-06-11 05:28:00,
2013-06-11 01:33:00,69.1,67.9,29.97,SSE,157,8.0,9.0,96,0.00,,---,0.00,VWS V14.01,2013-06-11 05:33:00,
2013-06-11 01:38:00,69.1,67.9,29.97,SW,215,6.0,10.0,96,0.00,,---,0.00,VWS V14.01,2013-06-11 05:38:00,
2013-06-11 01:43:00,69.2,68.0,29.96,SW,231,5.0,8.0,96,0.00,,---,0.00,VWS V14.01,2013-06-11 05:43:00,
2013-06-11 01:48:00,69.2,68.0,29.96,WSW,238,3.0,8.0,96,0.00,,---,0.00,VWS V14.01,2013-06-11 05:48:00,
2013-06-11 01:53:00,69.2,68.0,29.96,SSW,207,4.0,7.0,96,0.00,,---,0.00,VWS V14.01,2013-06-11 05:53:00,
2013-06-11 01:58:00,69.1,67.9,29.96,SW,219,3.0,7.0,96,0.00,,---,0.00,VWS V14.01,2013-06-11 05:58:00,
2013-06-11 02:03:00,69.1,67.6,29.96,SW,236,4.0,8.0,95,0.00,,---,0.00,VWS V14.01,2013-06-11 06:03:00,
2013-06-11 02:08:00,69.2,67.7,29.96,SSW,210,3.0,10.0,95,0.00,,---,0.00,VWS V14.01,2013-06-11 06:08:00,
2013-06-11 02:13:00,69.3,67.8,29.97,West,269,1.0,7.0,95,0.00,,---,0.00,VWS V14.01,2013-06-11 06:13:00,
2013-06-11 02:18:00,69.3,67.8,29.97,WSW,242,3.0,10.0,95,0.00,,---,0.00,VWS V14.01,2013-06-11 06:18:00,
2013-06-11 02:23:00,69.3,67.8,29.97,West,260,4.0,9.0,95,0.00,,---,0.00,VWS V14.01,2013-06-11 06:23:00,
2013-06-11 02:28:00,69.4,67.9,29.97,SW,225,1.0,7.0,95,0.00,,---,0.00,VWS V14.01,2013-06-11 06:28:00,
2013-06-11 02:33:00,69.4,67.9,29.97,SSW,208,4.0,10.0,95,0.00,,---,0.00,VWS V14.01,2013-06-11 06:33:00,
2013-06-11 02:38:00,69.4,67.9,29.97,WSW,239,9.0,12.0,95,0.00,,---,0.00,VWS V14.01,2013-06-11 06:38:00,
2013-06-11 02:43:00,69.4,67.9,29.97,WSW,239,7.0,10.0,95,0.00,,---,0.00,VWS V14.01,2013-06-11 06:43:00,
2013-06-11 02:48:00,69.5,68.0,29.97,WSW,253,7.0,10.0,95,0.00,,---,0.00,VWS V14.01,2013-06-11 06:48:00,
2013-06-11 02:53:00,69.5,68.0,29.97,West,263,7.0,10.0,95,0.00,,---,0.00,VWS V14.01,2013-06-11 06:53:00,
2013-06-11 02:58:00,69.6,67.8,29.97,SSW,197,1.0,7.0,94,0.00,,---,0.00,VWS V14.01,2013-06-11 06:58:00,
2013-06-11 03:04:00,69.6,67.8,29.97,WSW,240,3.0,11.0,94,0.00,,---,0.00,VWS V14.01,2013-06-11 07:04:00,
2013-06-11 03:09:00,69.6,67.8,29.97,SSW,204,4.0,7.0,94,0.00,,---,0.00,VWS V14.01,2013-06-11 07:09:00,
2013-06-11 03:14:00,69.6,67.8,29.97,SW,215,4.0,10.0,94,0.00,,---,0.00,VWS V14.01,2013-06-11 07:14:00,
2013-06-11 03:19:00,69.6,67.8,29.97,SW,224,9.0,10.0,94,0.00,,---,0.00,VWS V14.01,2013-06-11 07:19:00,
2013-06-11 03:24:00,69.6,67.8,29.96,SW,236,8.0,10.0,94,0.00,,---,0.00,VWS V14.01,2013-06-11 07:24:00,
2013-06-11 03:29:00,69.5,67.7,29.96,SW,222,2.0,12.0,94,0.00,,---,0.00,VWS V14.01,2013-06-11 07:29:00,
2013-06-11 03:34:00,69.6,67.8,29.96,WSW,240,2.0,11.0,94,0.00,,---,0.00,VWS V14.01,2013-06-11 07:34:00,
2013-06-11 03:39:00,69.5,67.7,29.96,SW,214,0.0,9.0,94,0.00,,---,0.00,VWS V14.01,2013-06-11 07:39:00,
2013-06-11 03:44:00,69.6,67.8,29.96,SW,217,4.0,11.0,94,0.00,,---,0.00,VWS V14.01,2013-06-11 07:44:00,
2013-06-11 03:49:00,69.5,67.7,29.95,SW,231,7.0,10.0,94,0.00,,---,0.00,VWS V14.01,2013-06-11 07:49:00,
2013-06-11 03:54:00,69.5,67.7,29.96,WSW,239,1.0,7.0,94,0.00,,---,0.00,VWS V14.01,2013-06-11 07:54:00,
2013-06-11 03:59:00,69.5,67.7,29.95,SSW,204,4.0,4.0,94,0.00,,---,0.00,VWS V14.01,2013-06-11 07:59:00,
2013-06-11 04:04:00,69.5,68.0,29.95,SW,222,3.0,7.0,95,0.00,,---,0.00,VWS V14.01,2013-06-11 08:04:00,
2013-06-11 04:09:00,69.6,68.1,29.95,SW,216,3.0,7.0,95,0.00,,---,0.00,VWS V14.01,2013-06-11 08:09:00,
2013-06-11 04:14:00,69.6,68.1,29.95,WSW,250,3.0,6.0,95,0.00,,---,0.00,VWS V14.01,2013-06-11 08:14:00,
2013-06-11 04:19:00,69.6,68.1,29.96,WSW,240,5.0,5.0,95,0.00,,---,0.00,VWS V14.01,2013-06-11 08:19:00,
2013-06-11 04:24:00,69.6,68.1,29.96,WSW,250,5.0,9.0,95,0.00,,---,0.00,VWS V14.01,2013-06-11 08:24:00,
2013-06-11 04:29:00,69.7,68.2,29.96,West,274,5.0,9.0,95,0.00,,---,0.00,VWS V14.01,2013-06-11 08:29:00,
2013-06-11 04:34:00,69.7,68.2,29.96,SW,222,3.0,7.0,95,0.00,,---,0.00,VWS V14.01,2013-06-11 08:34:00,
2013-06-11 04:39:00,69.7,68.2,29.96,WSW,249,11.0,11.0,95,0.00,,---,0.00,VWS V14.01,2013-06-11 08:39:00,
2013-06-11 04:44:00,69.8,68.3,29.96,WSW,239,5.0,7.0,95,0.00,,---,0.00,VWS V14.01,2013-06-11 08:44:00,
2013-06-11 04:49:00,69.8,68.3,29.96,West,260,4.0,8.0,95,0.00,,---,0.00,VWS V14.01,2013-06-11 08:49:00,
2013-06-11 04:54:00,69.9,68.4,29.96,WSW,257,1.0,6.0,95,0.00,,---,0.00,VWS V14.01,2013-06-11 08:54:00,
2013-06-11 04:59:00,69.9,68.4,29.96,South,179,4.0,6.0,95,0.00,,---,0.00,VWS V14.01,2013-06-11 08:59:00,
2013-06-11 05:04:00,69.9,68.4,29.95,SW,222,6.0,7.0,95,0.00,,---,0.00,VWS V14.01,2013-06-11 09:04:00,
2013-06-11 05:09:00,69.9,68.4,29.95,SW,218,3.0,3.0,95,0.00,,---,0.00,VWS V14.01,2013-06-11 09:09:00,
2013-06-11 05:14:00,69.9,68.4,29.95,SW,217,2.0,4.0,95,0.00,,---,0.00,VWS V14.01,2013-06-11 09:14:00,
2013-06-11 05:19:00,69.9,68.4,29.95,SW,219,2.0,5.0,95,0.00,,---,0.00,VWS V14.01,2013-06-11 09:19:00,
2013-06-11 05:24:00,69.9,68.4,29.96,WSW,249,0.0,5.0,95,0.00,,---,0.00,VWS V14.01,2013-06-11 09:24:00,
2013-06-11 05:29:00,69.9,68.4,29.96,SW,231,1.0,4.0,95,0.00,,---,0.00,VWS V14.01,2013-06-11 09:29:00,
2013-06-11 05:34:00,69.9,68.7,29.96,SSW,204,2.0,4.0,96,0.00,,---,0.00,VWS V14.01,2013-06-11 09:34:00,
2013-06-11 05:39:00,69.9,68.7,29.95,SW,233,2.0,4.0,96,0.00,,---,0.00,VWS V14.01,2013-06-11 09:39:00,
2013-06-11 05:44:00,69.9,68.7,29.96,SW,231,2.0,3.0,96,0.00,,---,0.00,VWS V14.01,2013-06-11 09:44:00,
2013-06-11 05:49:00,69.9,68.7,29.96,SW,216,3.0,4.0,96,0.00,,---,0.00,VWS V14.01,2013-06-11 09:49:00,
2013-06-11 05:54:00,69.9,68.7,29.95,SSW,211,1.0,3.0,96,0.00,,---,0.00,VWS V14.01,2013-06-11 09:54:00,
2013-06-11 05:59:00,69.9,68.7,29.95,SSW,205,3.0,4.0,96,0.00,,---,0.00,VWS V14.01,2013-06-11 09:59:00,
2013-06-11 06:04:00,69.8,68.6,29.96,SSW,210,4.0,4.0,96,0.00,,---,0.00,VWS V14.01,2013-06-11 10:04:00,
2013-06-11 06:09:00,69.8,68.6,29.95,SSE,159,0.0,3.0,96,0.00,,---,0.00,VWS V14.01,2013-06-11 10:09:00,
2013-06-11 06:14:00,69.8,68.6,29.95,South,170,1.0,2.0,96,0.00,,---,0.00,VWS V14.01,2013-06-11 10:14:00,
2013-06-11 06:19:00,69.8,68.6,29.95,South,176,3.0,4.0,96,0.00,,---,0.00,VWS V14.01,2013-06-11 10:19:00,
2013-06-11 06:25:00,69.9,68.7,29.95,South,177,1.0,4.0,96,0.00,,---,0.00,VWS V14.01,2013-06-11 10:25:00,
2013-06-11 06:30:00,69.9,68.7,29.96,South,179,2.0,3.0,96,0.00,,---,0.00,VWS V14.01,2013-06-11 10:30:00,
2013-06-11 06:35:00,69.9,68.7,29.96,SW,222,0.0,3.0,96,0.00,,---,0.00,VWS V14.01,2013-06-11 10:35:00,
2013-06-11 06:40:00,69.9,68.7,29.96,WSW,249,0.0,1.0,96,0.00,,---,0.00,VWS V14.01,2013-06-11 10:40:00,
2013-06-11 06:45:00,70.0,68.8,29.97,WNW,288,1.0,2.0,96,0.00,,---,0.00,VWS V14.01,2013-06-11 10:45:00,
2013-06-11 06:50:00,70.0,68.8,29.97,WNW,294,0.0,1.0,96,0.00,,---,0.00,VWS V14.01,2013-06-11 10:50:00,
2013-06-11 06:55:00,70.0,68.8,29.97,WNW,294,0.0,1.0,96,0.00,,---,0.00,VWS V14.01,2013-06-11 10:55:00,
2013-06-11 07:00:00,70.1,69.2,29.98,WNW,294,0.0,0.0,97,0.00,,---,0.00,VWS V14.01,2013-06-11 11:00:00,
2013-06-11 07:05:00,70.1,68.9,29.98,WNW,294,0.0,0.0,96,0.00,,---,0.00,VWS V14.01,2013-06-11 11:05:00,
2013-06-11 07:10:00,70.1,68.9,29.98,West,280,0.0,1.0,96,0.00,,---,0.00,VWS V14.01,2013-06-11 11:10:00,
2013-06-11 07:15:00,70.2,69.3,29.98,South,186,0.0,2.0,97,0.00,,---,0.00,VWS V14.01,2013-06-11 11:15:00,
2013-06-11 07:20:00,70.3,69.1,29.98,SW,226,1.0,2.0,96,0.00,,---,0.00,VWS V14.01,2013-06-11 11:20:00,
2013-06-11 07:25:00,70.3,69.1,29.98,SW,224,2.0,3.0,96,0.00,,---,0.00,VWS V14.01,2013-06-11 11:25:00,
2013-06-11 07:30:00,70.4,69.2,29.98,SW,231,4.0,4.0,96,0.00,,---,0.00,VWS V14.01,2013-06-11 11:30:00,
2013-06-11 07:35:00,70.5,69.3,29.98,WSW,245,3.0,4.0,96,0.00,,---,0.00,VWS V14.01,2013-06-11 11:35:00,
2013-06-11 07:40:00,70.6,69.4,29.99,SW,228,2.0,4.0,96,0.00,,---,0.00,VWS V14.01,2013-06-11 11:40:00,
2013-06-11 07:45:00,70.7,69.5,29.99,SW,232,5.0,7.0,96,0.00,,---,0.00,VWS V14.01,2013-06-11 11:45:00,
2013-06-11 07:50:00,70.9,69.7,29.99,SSW,211,0.0,5.0,96,0.00,,---,0.00,VWS V14.01,2013-06-11 11:50:00,
2013-06-11 07:55:00,70.9,69.7,29.99,SW,236,7.0,8.0,96,0.00,,---,0.00,VWS V14.01,2013-06-11 11:55:00,
2013-06-11 08:00:00,71.1,69.9,29.99,WSW,240,2.0,7.0,96,0.00,,---,0.00,VWS V14.01,2013-06-11 12:00:00,
2013-06-11 08:05:00,71.3,70.1,29.99,West,274,6.0,8.0,96,0.00,,---,0.00,VWS V14.01,2013-06-11 12:05:00,
2013-06-11 08:10:00,71.4,69.9,29.99,SW,225,2.0,8.0,95,0.00,,---,0.00,VWS V14.01,2013-06-11 12:10:00,
2013-06-11 08:15:00,71.6,70.1,29.99,WSW,250,3.0,10.0,95,0.00,,---,0.00,VWS V14.01,2013-06-11 12:15:00,
2013-06-11 08:20:00,71.8,70.0,29.99,SW,233,2.0,10.0,94,0.00,,---,0.00,VWS V14.01,2013-06-11 12:20:00,
2013-06-11 08:25:00,72.1,70.3,29.99,WSW,255,6.0,12.0,94,0.00,,---,0.00,VWS V14.01,2013-06-11 12:25:00,
2013-06-11 08:30:00,72.4,70.3,29.99,SSW,207,0.0,9.0,93,0.00,,---,0.00,VWS V14.01,2013-06-11 12:30:00,
2013-06-11 08:35:00,72.8,70.7,29.99,WSW,238,2.0,11.0,93,0.00,,---,0.00,VWS V14.01,2013-06-11 12:35:00,
2013-06-11 08:40:00,73.1,70.6,29.99,West,280,6.0,13.0,92,0.00,,---,0.00,VWS V14.01,2013-06-11 12:40:00,
2013-06-11 08:45:00,73.4,70.6,29.99,West,264,7.0,13.0,91,0.00,,---,0.00,VWS V14.01,2013-06-11 12:45:00,
2013-06-11 08:50:00,73.5,70.7,29.99,WNW,287,6.0,10.0,91,0.00,,---,0.00,VWS V14.01,2013-06-11 12:50:00,
2013-06-11 08:55:00,73.6,70.8,29.99,WSW,237,3.0,12.0,91,0.00,,---,0.00,VWS V14.01,2013-06-11 12:55:00,
2013-06-11 09:00:00,73.8,70.7,29.99,SW,226,7.0,10.0,90,0.00,,---,0.00,VWS V14.01,2013-06-11 13:00:00,
2013-06-11 09:05:00,74.2,71.1,29.99,SW,232,8.0,8.0,90,0.00,,---,0.00,VWS V14.01,2013-06-11 13:05:00,
2013-06-11 09:10:00,74.5,71.1,29.99,West,269,6.0,9.0,89,0.00,,---,0.00,VWS V14.01,2013-06-11 13:10:00,
2013-06-11 09:15:00,74.7,70.6,29.99,WSW,245,2.0,11.0,87,0.00,,---,0.00,VWS V14.01,2013-06-11 13:15:00,
2013-06-11 09:20:00,75.1,71.3,29.99,West,266,2.0,7.0,88,0.00,,---,0.00,VWS V14.01,2013-06-11 13:20:00,
2013-06-11 09:25:00,75.6,71.5,29.99,WSW,249,3.0,10.0,87,0.00,,---,0.00,VWS V14.01,2013-06-11 13:25:00,
2013-06-11 09:30:00,75.7,71.6,29.99,West,270,0.0,8.0,87,0.00,,---,0.00,VWS V14.01,2013-06-11 13:30:00,
2013-06-11 09:35:00,75.9,71.8,29.99,WSW,253,10.0,10.0,87,0.00,,---,0.00,VWS V14.01,2013-06-11 13:35:00,
2013-06-11 09:40:00,75.9,71.1,29.99,WSW,241,9.0,11.0,85,0.00,,---,0.00,VWS V14.01,2013-06-11 13:40:00,
2013-06-11 09:45:00,76.3,71.1,29.99,West,269,10.0,14.0,84,0.00,,---,0.00,VWS V14.01,2013-06-11 13:45:00,
2013-06-11 09:50:00,76.6,71.4,29.99,WSW,250,0.0,11.0,84,0.00,,---,0.00,VWS V14.01,2013-06-11 13:50:00,
2013-06-11 09:55:00,76.5,71.0,29.99,WSW,245,2.0,14.0,83,0.00,,---,0.00,VWS V14.01,2013-06-11 13:55:00,
2013-06-11 10:00:00,76.6,71.4,29.99,SW,231,8.0,10.0,84,0.00,,---,0.00,VWS V14.01,2013-06-11 14:00:00,
2013-06-11 10:05:00,76.8,71.6,29.99,SW,236,9.0,12.0,84,0.00,,---,0.00,VWS V14.01,2013-06-11 14:05:00,
2013-06-11 10:10:00,77.2,71.6,29.99,West,269,5.0,10.0,83,0.00,,---,0.00,VWS V14.01,2013-06-11 14:10:00,
2013-06-11 10:15:00,77.0,71.4,29.98,SSW,210,5.0,11.0,83,0.00,,---,0.00,VWS V14.01,2013-06-11 14:15:00,
2013-06-11 10:20:00,77.2,71.6,29.98,SW,218,3.0,9.0,83,0.00,,---,0.00,VWS V14.01,2013-06-11 14:20:00,
2013-06-11 10:26:00,77.5,71.2,29.98,West,276,11.0,11.0,81,0.00,,---,0.00,VWS V14.01,2013-06-11 14:26:00,
2013-06-11 10:31:00,77.4,71.1,29.98,West,278,6.0,13.0,81,0.00,,---,0.00,VWS V14.01,2013-06-11 14:31:00,
2013-06-11 10:36:00,77.7,71.4,29.98,South,184,0.0,10.0,81,0.00,,---,0.00,VWS V14.01,2013-06-11 14:36:00,
2013-06-11 10:41:00,78.0,71.3,29.98,West,271,3.0,9.0,80,0.00,,---,0.00,VWS V14.01,2013-06-11 14:41:00,
2013-06-11 10:46:00,78.1,72.2,29.98,WSW,249,4.0,11.0,82,0.00,,---,0.00,VWS V14.01,2013-06-11 14:46:00,
2013-06-11 10:51:00,78.4,71.7,29.98,West,270,3.0,11.0,80,0.00,,---,0.00,VWS V14.01,2013-06-11 14:51:00,
2013-06-11 10:56:00,78.4,71.7,29.98,West,267,3.0,10.0,80,0.00,,---,0.00,VWS V14.01,2013-06-11 14:56:00,
2013-06-11 11:01:00,78.7,72.0,29.98,WNW,298,1.0,7.0,80,0.00,,---,0.00,VWS V14.01,2013-06-11 15:01:00,
2013-06-11 11:06:00,78.7,71.3,29.98,SW,236,2.0,11.0,78,0.00,,---,0.00,VWS V14.01,2013-06-11 15:06:00,
2013-06-11 11:11:00,78.9,71.5,29.98,NW,307,7.0,11.0,78,0.00,,---,0.00,VWS V14.01,2013-06-11 15:11:00,
2013-06-11 11:16:00,79.1,71.7,29.99,NW,311,5.0,8.0,78,0.00,,---,0.00,VWS V14.01,2013-06-11 15:16:00,
2013-06-11 11:21:00,79.2,71.0,29.99,WSW,242,3.0,10.0,76,0.00,,---,0.00,VWS V14.01,2013-06-11 15:21:00,
2013-06-11 11:26:00,79.3,71.1,29.99,West,266,1.0,9.0,76,0.00,,---,0.00,VWS V14.01,2013-06-11 15:26:00,
2013-06-11 11:31:00,79.4,71.2,29.99,West,270,5.0,9.0,76,0.00,,---,0.00,VWS V14.01,2013-06-11 15:31:00,
2013-06-11 11:36:00,79.3,71.5,29.99,SW,228,4.0,10.0,77,0.00,,---,0.00,VWS V14.01,2013-06-11 15:36:00,
2013-06-11 11:41:00,80.0,71.8,29.99,West,262,3.0,6.0,76,0.00,,---,0.00,VWS V14.01,2013-06-11 15:41:00,
2013-06-11 11:46:00,80.3,70.9,29.99,NW,308,4.0,11.0,73,0.00,,---,0.00,VWS V14.01,2013-06-11 15:46:00,
2013-06-11 11:51:00,80.6,72.3,29.99,West,276,5.0,6.0,76,0.00,,---,0.00,VWS V14.01,2013-06-11 15:51:00,
2013-06-11 11:56:00,80.4,71.4,29.99,WSW,249,1.0,9.0,74,0.00,,---,0.00,VWS V14.01,2013-06-11 15:56:00,
2013-06-11 12:01:00,80.4,71.0,29.99,West,262,1.0,8.0,73,0.00,,---,0.00,VWS V14.01,2013-06-11 16:01:00,
2013-06-11 12:06:00,80.8,71.3,29.99,WNW,284,2.0,2.0,73,0.00,,---,0.00,VWS V14.01,2013-06-11 16:06:00,
2013-06-11 12:11:00,80.5,71.1,29.99,South,191,2.0,9.0,73,0.00,,---,0.00,VWS V14.01,2013-06-11 16:11:00,
2013-06-11 12:16:00,80.5,70.7,29.99,West,263,5.0,8.0,72,0.00,,---,0.00,VWS V14.01,2013-06-11 16:16:00,
2013-06-11 12:21:00,80.8,72.1,29.99,West,277,3.0,5.0,75,0.00,,---,0.00,VWS V14.01,2013-06-11 16:21:00,
2013-06-11 12:26:00,81.4,71.5,29.99,WSW,244,0.0,8.0,72,0.00,,---,0.00,VWS V14.01,2013-06-11 16:26:00,
2013-06-11 12:31:00,82.0,70.8,29.98,SW,232,5.0,11.0,69,0.00,,---,0.00,VWS V14.01,2013-06-11 16:31:00,
2013-06-11 12:36:00,82.1,70.1,29.99,WNW,293,5.0,8.0,67,0.00,,---,0.00,VWS V14.01,2013-06-11 16:36:00,
2013-06-11 12:41:00,81.5,69.5,29.99,WNW,284,6.0,6.0,67,0.00,,---,0.00,VWS V14.01,2013-06-11 16:41:00,
2013-06-11 12:46:00,80.8,68.8,29.98,WNW,287,2.0,9.0,67,0.00,,---,0.00,VWS V14.01,2013-06-11 16:46:00,
2013-06-11 12:51:00,80.6,69.1,29.98,NNW,341,5.0,7.0,68,0.00,,---,0.00,VWS V14.01,2013-06-11 16:51:00,
2013-06-11 12:56:00,81.4,69.4,29.98,WNW,299,5.0,7.0,67,0.00,,---,0.00,VWS V14.01,2013-06-11 16:56:00,
2013-06-11 13:01:00,81.5,69.9,29.98,West,276,2.0,6.0,68,0.00,,---,0.00,VWS V14.01,2013-06-11 17:01:00,
2013-06-11 13:06:00,82.0,71.3,29.98,NW,318,4.0,9.0,70,0.00,,---,0.00,VWS V14.01,2013-06-11 17:06:00,
2013-06-11 13:11:00,82.2,69.7,29.98,WSW,250,2.0,14.0,66,0.00,,---,0.00,VWS V14.01,2013-06-11 17:11:00,
2013-06-11 13:16:00,82.1,70.1,29.98,WNW,295,1.0,7.0,67,0.00,,---,0.00,VWS V14.01,2013-06-11 17:16:00,
2013-06-11 13:21:00,81.7,69.7,29.97,WNW,303,2.0,6.0,67,0.00,,---,0.00,VWS V14.01,2013-06-11 17:21:00,
2013-06-11 13:26:00,81.7,69.7,29.97,West,259,0.0,8.0,67,0.00,,---,0.00,VWS V14.01,2013-06-11 17:26:00,
2013-06-11 13:31:00,82.0,68.2,29.97,WNW,289,4.0,6.0,63,0.00,,---,0.00,VWS V14.01,2013-06-11 17:31:00,
2013-06-11 13:36:00,82.4,67.6,29.97,West,280,6.0,11.0,61,0.00,,---,0.00,VWS V14.01,2013-06-11 17:36:00,
2013-06-11 13:41:00,82.9,68.6,29.97,South,169,1.0,7.0,62,0.00,,---,0.00,VWS V14.01,2013-06-11 17:41:00,
2013-06-11 13:46:00,83.3,68.0,29.97,West,276,10.0,13.0,60,0.00,,---,0.00,VWS V14.01,2013-06-11 17:46:00,
2013-06-11 13:51:00,82.9,67.1,29.97,NNE,18,4.0,11.0,59,0.00,,---,0.00,VWS V14.01,2013-06-11 17:51:00,
2013-06-11 13:56:00,83.0,66.7,29.96,WNW,287,1.0,9.0,58,0.00,,---,0.00,VWS V14.01,2013-06-11 17:56:00,
2013-06-11 14:01:00,82.7,66.4,29.96,SW,225,4.0,9.0,58,0.00,,---,0.00,VWS V14.01,2013-06-11 18:01:00,
2013-06-11 14:06:00,82.9,67.1,29.96,WNW,298,3.0,9.0,59,0.00,,---,0.00,VWS V14.01,2013-06-11 18:06:00,
2013-06-11 14:11:00,83.1,64.2,29.96,NNE,19,2.0,10.0,53,0.00,,---,0.00,VWS V14.01,2013-06-11 18:11:00,
2013-06-11 14:16:00,83.2,64.8,29.96,West,281,3.0,3.0,54,0.00,,---,0.00,VWS V14.01,2013-06-11 18:16:00,
2013-06-11 14:21:00,83.6,67.3,29.96,West,263,1.0,1.0,58,0.00,,---,0.00,VWS V14.01,2013-06-11 18:21:00,
2013-06-11 14:27:00,83.7,64.2,29.97,WNW,289,7.0,12.0,52,0.00,,---,0.00,VWS V14.01,2013-06-11 18:27:00,
2013-06-11 14:32:00,83.6,66.3,29.96,WNW,283,1.0,3.0,56,0.00,,---,0.00,VWS V14.01,2013-06-11 18:32:00,
2013-06-11 14:37:00,83.8,65.4,29.96,WSW,255,0.0,8.0,54,0.00,,---,0.00,VWS V14.01,2013-06-11 18:37:00,
2013-06-11 14:42:00,84.1,65.1,29.96,NNW,331,4.0,7.0,53,0.00,,---,0.00,VWS V14.01,2013-06-11 18:42:00,
2013-06-11 14:47:00,84.2,64.7,29.96,NNW,334,4.0,4.0,52,0.00,,---,0.00,VWS V14.01,2013-06-11 18:47:00,
2013-06-11 14:52:00,84.2,64.7,29.96,NW,321,6.0,6.0,52,0.00,,---,0.00,VWS V14.01,2013-06-11 18:52:00,
2013-06-11 14:57:00,84.1,64.0,29.96,West,263,0.0,8.0,51,0.00,,---,0.00,VWS V14.01,2013-06-11 18:57:00,
2013-06-11 15:02:00,84.2,64.7,29.96,NW,316,0.0,5.0,52,0.00,,---,0.00,VWS V14.01,2013-06-11 19:02:00,
2013-06-11 15:07:00,84.3,64.2,29.96,WNW,298,5.0,8.0,51,0.00,,---,0.00,VWS V14.01,2013-06-11 19:07:00,
2013-06-11 15:12:00,84.4,63.8,29.96,NNW,329,6.0,12.0,50,0.00,,---,0.00,VWS V14.01,2013-06-11 19:12:00,
2013-06-11 15:17:00,84.3,65.3,29.96,NW,318,1.0,3.0,53,0.00,,---,0.00,VWS V14.01,2013-06-11 19:17:00,
2013-06-11 15:22:00,84.6,65.6,29.96,WSW,250,2.0,8.0,53,0.00,,---,0.00,VWS V14.01,2013-06-11 19:22:00,
2013-06-11 15:27:00,84.6,63.9,29.96,WSW,242,3.0,7.0,50,0.00,,---,0.00,VWS V14.01,2013-06-11 19:27:00,
2013-06-11 15:32:00,84.6,63.9,29.96,NW,307,6.0,11.0,50,0.00,,---,0.00,VWS V14.01,2013-06-11 19:32:00,
2013-06-11 15:37:00,84.7,65.1,29.96,WNW,291,5.0,9.0,52,0.00,,---,0.00,VWS V14.01,2013-06-11 19:37:00,
2013-06-11 15:42:00,84.7,64.0,29.96,NW,326,7.0,7.0,50,0.00,,---,0.00,VWS V14.01,2013-06-11 19:42:00,
2013-06-11 15:47:00,84.7,64.6,29.96,NNW,330,3.0,8.0,51,0.00,,---,0.00,VWS V14.01,2013-06-11 19:47:00,
2013-06-11 15:52:00,84.7,64.0,29.95,NW,311,4.0,8.0,50,0.00,,---,0.00,VWS V14.01,2013-06-11 19:52:00,
2013-06-11 15:57:00,84.7,64.6,29.96,NW,319,3.0,4.0,51,0.00,,---,0.00,VWS V14.01,2013-06-11 19:57:00,
2013-06-11 16:02:00,84.6,65.1,29.95,WNW,293,4.0,6.0,52,0.00,,---,0.00,VWS V14.01,2013-06-11 20:02:00,
2013-06-11 16:07:00,84.5,66.6,29.95,NW,317,0.0,2.0,55,0.00,,---,0.00,VWS V14.01,2013-06-11 20:07:00,
2013-06-11 16:12:00,85.0,68.1,29.95,NW,309,0.0,4.0,57,0.00,,---,0.00,VWS V14.01,2013-06-11 20:12:00,
2013-06-11 16:17:00,85.0,64.9,29.95,NNW,333,3.0,7.0,51,0.00,,---,0.00,VWS V14.01,2013-06-11 20:17:00,
2013-06-11 16:22:00,85.0,64.3,29.95,NNW,329,2.0,8.0,50,0.00,,---,0.00,VWS V14.01,2013-06-11 20:22:00,
2013-06-11 16:28:00,85.2,65.1,29.95,West,272,8.0,9.0,51,0.00,,---,0.00,VWS V14.01,2013-06-11 20:28:00,
2013-06-11 16:32:00,85.2,64.5,29.95,WNW,290,1.0,6.0,50,0.00,,---,0.00,VWS V14.01,2013-06-11 20:32:00,
2013-06-11 16:38:00,85.2,64.5,29.95,WSW,244,4.0,4.0,50,0.00,,---,0.00,VWS V14.01,2013-06-11 20:38:00,
2013-06-11 16:43:00,85.5,65.3,29.95,WNW,295,3.0,6.0,51,0.00,,---,0.00,VWS V14.01,2013-06-11 20:43:00,
2013-06-11 16:48:00,85.7,64.4,29.95,NNW,333,3.0,7.0,49,0.00,,---,0.00,VWS V14.01,2013-06-11 20:48:00,
2013-06-11 16:53:00,85.5,64.2,29.95,NW,321,4.0,12.0,49,0.00,,---,0.00,VWS V14.01,2013-06-11 20:53:00,
2013-06-11 16:58:00,85.6,65.4,29.95,NW,322,0.0,4.0,51,0.00,,---,0.00,VWS V14.01,2013-06-11 20:58:00,
2013-06-11 17:03:00,85.9,64.0,29.95,NW,323,6.0,9.0,48,0.00,,---,0.00,VWS V14.01,2013-06-11 21:03:00,
2013-06-11 17:08:00,85.7,65.5,29.95,NW,311,6.0,9.0,51,0.00,,---,0.00,VWS V14.01,2013-06-11 21:08:00,
2013-06-11 17:13:00,85.6,65.4,29.95,NNW,328,1.0,5.0,51,0.00,,---,0.00,VWS V14.01,2013-06-11 21:13:00,
2013-06-11 17:18:00,85.7,64.9,29.94,NNW,333,3.0,8.0,50,0.00,,---,0.00,VWS V14.01,2013-06-11 21:18:00,
2013-06-11 17:23:00,85.7,63.8,29.94,NE,36,1.0,7.0,48,0.00,,---,0.00,VWS V14.01,2013-06-11 21:23:00,
2013-06-11 17:28:00,85.7,63.8,29.94,NNW,332,1.0,6.0,48,0.00,,---,0.00,VWS V14.01,2013-06-11 21:28:00,
2013-06-11 17:33:00,86.3,65.5,29.94,NNW,347,4.0,4.0,50,0.00,,---,0.00,VWS V14.01,2013-06-11 21:33:00,
2013-06-11 17:38:00,86.3,64.9,29.94,NW,309,0.0,4.0,49,0.00,,---,0.00,VWS V14.01,2013-06-11 21:38:00,
2013-06-11 17:43:00,86.5,64.5,29.94,West,263,6.0,6.0,48,0.00,,---,0.00,VWS V14.01,2013-06-11 21:43:00,
2013-06-11 17:48:00,86.3,64.9,29.94,West,269,1.0,1.0,49,0.00,,---,0.00,VWS V14.01,2013-06-11 21:48:00,
2013-06-11 17:53:00,86.3,65.5,29.94,West,270,2.0,4.0,50,0.00,,---,0.00,VWS V14.01,2013-06-11 21:53:00,
2013-06-11 17:58:00,86.1,64.7,29.94,WNW,282,1.0,2.0,49,0.00,,---,0.00,VWS V14.01,2013-06-11 21:58:00,
2013-06-11 18:03:00,85.7,65.5,29.94,NW,313,2.0,4.0,51,0.00,,---,0.00,VWS V14.01,2013-06-11 22:03:00,
2013-06-11 18:08:00,85.9,64.0,29.93,WNW,287,0.0,0.0,48,0.00,,---,0.00,VWS V14.01,2013-06-11 22:08:00,
2013-06-11 18:13:00,86.3,63.7,29.93,WNW,292,0.0,3.0,47,0.00,,---,0.00,VWS V14.01,2013-06-11 22:13:00,
2013-06-11 18:18:00,86.4,65.6,29.93,WSW,243,1.0,1.0,50,0.00,,---,0.00,VWS V14.01,2013-06-11 22:18:00,
2013-06-11 18:23:00,86.7,65.3,29.93,WSW,243,0.0,0.0,49,0.00,,---,0.00,VWS V14.01,2013-06-11 22:23:00,
2013-06-11 18:28:00,86.6,64.6,29.93,WNW,283,1.0,2.0,48,0.00,,---,0.00,VWS V14.01,2013-06-11 22:28:00,
2013-06-11 18:33:00,86.2,64.2,29.93,WNW,285,0.0,1.0,48,0.00,,---,0.00,VWS V14.01,2013-06-11 22:33:00,
2013-06-11 18:38:00,86.6,64.0,29.93,WNW,285,0.0,1.0,47,0.00,,---,0.00,VWS V14.01,2013-06-11 22:38:00,
2013-06-11 18:43:00,87.3,64.6,29.93,WNW,283,0.0,1.0,47,0.00,,---,0.00,VWS V14.01,2013-06-11 22:43:00,
2013-06-11 18:48:00,87.2,65.1,29.93,WNW,282,0.0,1.0,48,0.00,,---,0.00,VWS V14.01,2013-06-11 22:48:00,
2013-06-11 18:53:00,87.9,65.2,29.93,WNW,282,0.0,0.0,47,0.00,,---,0.00,VWS V14.01,2013-06-11 22:53:00,
2013-06-11 18:58:00,88.7,65.9,29.93,WNW,283,0.0,0.0,47,0.00,,---,0.00,VWS V14.01,2013-06-11 22:58:00,
2013-06-11 19:03:00,88.9,66.1,29.93,NNW,344,0.0,0.0,47,0.00,,---,0.00,VWS V14.01,2013-06-11 23:03:00,
2013-06-11 19:08:00,88.0,65.9,29.93,NNW,344,0.0,1.0,48,0.00,,---,0.00,VWS V14.01,2013-06-11 23:08:00,
2013-06-11 19:13:00,87.6,66.1,29.94,NNW,345,0.0,0.0,49,0.00,,---,0.00,VWS V14.01,2013-06-11 23:13:00,
2013-06-11 19:18:00,87.6,64.9,29.94,NNW,344,0.0,1.0,47,0.00,,---,0.00,VWS V14.01,2013-06-11 23:18:00,
2013-06-11 19:23:00,87.5,65.4,29.94,NNW,345,0.0,1.0,48,0.00,,---,0.00,VWS V14.01,2013-06-11 23:23:00,
2013-06-11 19:28:00,87.3,66.4,29.94,NNW,346,0.0,1.0,50,0.00,,---,0.00,VWS V14.01,2013-06-11 23:28:00,
2013-06-11 19:33:00,87.1,65.1,29.94,NNW,345,0.0,1.0,48,0.00,,---,0.00,VWS V14.01,2013-06-11 23:33:00,
2013-06-11 19:38:00,87.2,65.7,29.94,NNW,345,0.0,0.0,49,0.00,,---,0.00,VWS V14.01,2013-06-11 23:38:00,
2013-06-11 19:43:00,87.1,65.6,29.94,NNW,345,0.0,0.0,49,0.00,,---,0.00,VWS V14.01,2013-06-11 23:43:00,
2013-06-11 19:48:00,86.1,67.5,29.94,North,352,0.0,0.0,54,0.00,,---,0.00,VWS V14.01,2013-06-11 23:48:00,
2013-06-11 19:53:00,85.6,67.1,29.94,North,352,0.0,0.0,54,0.00,,---,0.00,VWS V14.01,2013-06-11 23:53:00,
2013-06-11 19:58:00,85.2,66.7,29.94,North,352,0.0,0.0,54,0.00,,---,0.00,VWS V14.01,2013-06-11 23:58:00,
2013-06-11 20:03:00,85.0,67.0,29.94,North,352,0.0,0.0,55,0.00,,---,0.00,VWS V14.01,2013-06-12 00:03:00,
2013-06-11 20:08:00,85.0,67.0,29.94,North,352,0.0,0.0,55,0.00,,---,0.00,VWS V14.01,2013-06-12 00:08:00,
2013-06-11 20:13:00,84.6,66.7,29.94,North,352,0.0,0.0,55,0.00,,---,0.00,VWS V14.01,2013-06-12 00:13:00,
2013-06-11 20:18:00,84.0,68.1,29.94,North,351,0.0,0.0,59,0.00,,---,0.00,VWS V14.01,2013-06-12 00:18:00,
2013-06-11 20:23:00,82.8,69.4,29.94,North,351,1.0,1.0,64,0.00,,---,0.00,VWS V14.01,2013-06-12 00:23:00,
2013-06-11 20:28:00,82.0,68.2,29.94,North,350,1.0,1.0,63,0.00,,---,0.00,VWS V14.01,2013-06-12 00:28:00,
2013-06-11 20:33:00,81.5,69.1,29.94,SW,214,1.0,1.0,66,0.00,,---,0.00,VWS V14.01,2013-06-12 00:33:00,
2013-06-11 20:38:00,81.1,70.8,29.94,SSW,203,1.0,2.0,71,0.00,,---,0.00,VWS V14.01,2013-06-12 00:38:00,
2013-06-11 20:43:00,80.5,68.5,29.94,SSW,203,0.0,1.0,67,0.00,,---,0.00,VWS V14.01,2013-06-12 00:43:00,
2013-06-11 20:48:00,80.1,66.8,29.93,SSW,203,0.0,0.0,64,0.00,,---,0.00,VWS V14.01,2013-06-12 00:48:00,
2013-06-11 20:53:00,80.1,65.0,29.93,SSW,203,0.0,0.0,60,0.00,,---,0.00,VWS V14.01,2013-06-12 00:53:00,
2013-06-11 20:58:00,80.6,64.5,29.94,SSW,203,0.0,0.0,58,0.00,,---,0.00,VWS V14.01,2013-06-12 00:58:00,
2013-06-11 21:03:00,80.7,64.1,29.94,SSW,203,0.0,0.0,57,0.00,,---,0.00,VWS V14.01,2013-06-12 01:03:00,
2013-06-11 21:08:00,81.0,64.3,29.94,SSW,203,0.0,0.0,57,0.00,,---,0.00,VWS V14.01,2013-06-12 01:08:00,
2013-06-11 21:14:00,80.6,65.0,29.94,SSW,195,2.0,3.0,59,0.00,,---,0.00,VWS V14.01,2013-06-12 01:14:00,
2013-06-11 21:19:00,78.6,69.6,29.94,SSW,193,3.0,3.0,74,0.00,,---,0.00,VWS V14.01,2013-06-12 01:19:00,
2013-06-11 21:24:00,78.3,68.5,29.94,South,190,1.0,2.0,72,0.00,,---,0.00,VWS V14.01,2013-06-12 01:24:00,
2013-06-11 21:29:00,78.2,67.2,29.94,South,190,0.0,0.0,69,0.00,,---,0.00,VWS V14.01,2013-06-12 01:29:00,
2013-06-11 21:34:00,78.6,65.0,29.95,South,169,0.0,0.0,63,0.00,,---,0.00,VWS V14.01,2013-06-12 01:34:00,
2013-06-11 21:39:00,78.9,66.6,29.95,SSE,156,0.0,0.0,66,0.00,,---,0.00,VWS V14.01,2013-06-12 01:39:00,
2013-06-11 21:44:00,77.9,67.8,29.95,South,184,2.0,2.0,71,0.00,,---,0.00,VWS V14.01,2013-06-12 01:44:00,
2013-06-11 21:49:00,77.4,68.1,29.96,SSE,158,0.0,2.0,73,0.00,,---,0.00,VWS V14.01,2013-06-12 01:49:00,
2013-06-11 21:54:00,77.3,67.6,29.96,SSE,158,0.0,0.0,72,0.00,,---,0.00,VWS V14.01,2013-06-12 01:54:00,
2013-06-11 21:59:00,77.8,66.4,29.96,SSE,158,0.0,1.0,68,0.00,,---,0.00,VWS V14.01,2013-06-12 01:59:00,
2013-06-11 22:04:00,78.3,64.7,29.96,SSE,158,1.0,1.0,63,0.00,,---,0.00,VWS V14.01,2013-06-12 02:04:00,
2013-06-11 22:09:00,78.9,64.3,29.96,SSE,158,1.0,1.0,61,0.00,,---,0.00,VWS V14.01,2013-06-12 02:09:00,
2013-06-11 22:14:00,79.5,63.9,29.96,SSE,158,0.0,1.0,59,0.00,,---,0.00,VWS V14.01,2013-06-12 02:14:00,
2013-06-11 22:19:00,79.3,64.2,29.96,SSE,158,0.0,0.0,60,0.00,,---,0.00,VWS V14.01,2013-06-12 02:19:00,
2013-06-11 22:24:00,78.9,65.2,29.96,SSE,158,0.0,0.0,63,0.00,,---,0.00,VWS V14.01,2013-06-12 02:24:00,
2013-06-11 22:29:00,78.4,65.7,29.96,SSE,158,0.0,0.0,65,0.00,,---,0.00,VWS V14.01,2013-06-12 02:29:00,
2013-06-11 22:34:00,77.2,66.7,29.97,SSW,211,0.0,1.0,70,0.00,,---,0.00,VWS V14.01,2013-06-12 02:34:00,
2013-06-11 22:39:00,76.0,67.9,29.97,SSW,212,0.0,1.0,76,0.00,,---,0.00,VWS V14.01,2013-06-12 02:39:00,
2013-06-11 22:44:00,75.3,68.3,29.97,SSW,211,0.0,1.0,79,0.00,,---,0.00,VWS V14.01,2013-06-12 02:44:00,
2013-06-11 22:49:00,74.6,67.7,29.98,SSW,201,0.0,1.0,79,0.00,,---,0.00,VWS V14.01,2013-06-12 02:49:00,
2013-06-11 22:54:00,74.3,68.4,29.98,SSW,201,0.0,0.0,82,0.00,,---,0.00,VWS V14.01,2013-06-12 02:54:00,
2013-06-11 22:59:00,74.1,68.6,29.98,SSW,201,0.0,0.0,83,0.00,,---,0.00,VWS V14.01,2013-06-12 02:59:00,
2013-06-11 23:04:00,73.9,68.4,29.98,SSW,201,0.0,0.0,83,0.00,,---,0.00,VWS V14.01,2013-06-12 03:04:00,
2013-06-11 23:09:00,73.9,68.4,29.98,SSW,201,0.0,0.0,83,0.00,,---,0.00,VWS V14.01,2013-06-12 03:09:00,
2013-06-11 23:14:00,73.9,67.3,29.98,SSW,201,0.0,0.0,80,0.00,,---,0.00,VWS V14.01,2013-06-12 03:14:00,
2013-06-11 23:19:00,74.0,68.2,29.98,SSW,201,0.0,0.0,82,0.00,,---,0.00,VWS V14.01,2013-06-12 03:19:00,
2013-06-11 23:24:00,74.6,67.7,29.98,SSW,201,1.0,1.0,79,0.00,,---,0.00,VWS V14.01,2013-06-12 03:24:00,
2013-06-11 23:29:00,74.9,68.3,29.98,South,174,0.0,1.0,80,0.00,,---,0.00,VWS V14.01,2013-06-12 03:29:00,
2013-06-11 23:34:00,74.7,68.8,29.98,South,171,0.0,0.0,82,0.00,,---,0.00,VWS V14.01,2013-06-12 03:34:00,
2013-06-11 23:39:00,74.4,68.9,29.98,South,170,0.0,0.0,83,0.00,,---,0.00,VWS V14.01,2013-06-12 03:39:00,
2013-06-11 23:44:00,74.2,68.7,29.99,South,170,0.0,0.0,83,0.00,,---,0.00,VWS V14.01,2013-06-12 03:44:00,
2013-06-11 23:49:00,74.0,68.2,29.99,South,170,0.0,0.0,82,0.00,,---,0.00,VWS V14.01,2013-06-12 03:49:00,
2013-06-11 23:54:00,73.8,68.7,29.99,South,170,0.0,0.0,84,0.00,,---,0.00,VWS V14.01,2013-06-12 03:54:00,
2013-06-11 23:59:00,73.7,68.2,29.99,South,170,0.0,0.0,83,0.00,,---,0.00,VWS V14.01,2013-06-12 03:59:00,